FW9619 Weather Reports


time (UTC)temp
C
wind
direction
speed
KPH
gust
KPH
rain 1hr
cm
rain 24hr
cm
rain mn
cm
humidity
%
barometer
mb
20260906164544 36 92 8.0 16.1 0.00 0.00 0.00 46 1017.1
20260906163044 36 0 1.6 12.9 0.00 0.00 0.00 45 1017.2
20260906161545 35 300 4.8 12.9 0.00 0.00 0.00 49 1017.3
20260906160044 35 29 3.2 6.4 0.00 0.00 0.00 51 1017.3
20260906154547 33 5 1.6 9.7 0.00 0.00 0.00 54 1017.4
20260906153046 34 20 1.6 4.8 0.00 0.00 0.00 54 1017.4
20260906151546 32 125 1.6 6.4 0.00 0.00 0.00 58 1017.3
20260906150046 31 49 3.2 6.4 0.00 0.00 0.00 62 1017.2
20260906144548 30 0 1.6 4.8 0.00 0.00 0.00 65 1017.2
20260906143049 29 0 1.6 4.8 0.00 0.00 0.00 67 1017.2
20260906141546 27 47 1.6 6.4 0.00 0.00 0.00 72 1017.2
20260906140055 27 57 1.6 4.8 0.00 0.00 0.00 73 1017.4
20260906134542 25 15 1.6 4.8 0.00 0.00 0.00 79 1017.4
20260906133049 24 27 1.6 6.4 0.00 0.00 0.00 84 1017.3
20260906131546 23 41 1.6 4.8 0.00 0.00 0.00 86 1017.2
20260906130045 22 0 0.0 3.2 0.00 0.00 0.00 89 1017.1
20260906124549 21 0 0.0 1.6 0.00 0.00 0.00 91 1017.0
20260906123047 21 0 0.0 1.6 0.00 0.00 0.00 92 1016.7
20260906121550 20 5 0.0 3.2 0.00 0.00 0.00 92 1016.5
20260906120055 20 0 0.0 1.6 0.00 0.00 0.00 92 1016.5
20260906114549 20 0 0.0 0.0 0.00 0.00 0.00 92 1016.3
20260906113051 20 0 0.0 1.6 0.00 0.00 0.00 91 1016.3
20260906111559 20 0 0.0 0.0 0.00 0.00 0.00 91 1016.2
20260906110044 20 0 0.0 3.2 0.00 0.00 0.00 91 1016.1
20260906104549 20 0 0.0 0.0 0.00 0.00 0.00 91 1016.2
20260906103046 21 0 0.0 4.8 0.00 0.00 0.00 90 1016.3
20260906101544 21 0 0.0 3.2 0.00 0.00 0.00 90 1016.0
20260906100042 21 0 0.0 0.0 0.00 0.00 0.00 90 1016.0
20260906094547 21 0 0.0 1.6 0.00 0.00 0.00 90 1015.9
20260906093048 21 0 0.0 1.6 0.00 0.00 0.00 89 1015.6
20260906091545 21 0 0.0 3.2 0.00 0.00 0.00 89 1015.5
20260906090048 21 0 0.0 1.6 0.00 0.00 0.00 89 1015.6
20260906084551 21 0 0.0 3.2 0.00 0.00 0.00 89 1015.3
20260906083045 21 0 0.0 0.0 0.00 0.00 0.00 89 1015.3
20260906081546 21 0 0.0 1.6 0.00 0.00 0.00 89 1015.3
20260906080044 22 0 0.0 0.0 0.00 0.00 0.00 88 1015.2
20260906074548 22 0 1.6 4.8 0.00 0.00 0.00 87 1015.2
20260906073047 22 0 0.0 0.0 0.00 0.00 0.00 87 1015.4
20260906071557 22 0 0.0 0.0 0.00 0.00 0.00 87 1015.5
20260906070044 22 0 0.0 3.2 0.00 0.00 0.00 86 1015.5
20260906064549 22 0 0.0 3.2 0.00 0.00 0.00 85 1015.8
20260906063053 23 5 1.6 3.2 0.00 0.00 0.00 85 1015.9
20260906061546 22 0 1.6 3.2 0.00 0.00 0.00 85 1015.9
20260906060045 23 0 0.0 1.6 0.00 0.00 0.00 85 1015.8
20260906054550 23 0 0.0 1.6 0.00 0.00 0.00 84 1016.0
20260906053052 23 0 0.0 0.0 0.00 0.00 0.00 83 1015.9
20260906051546 23 0 0.0 0.0 0.00 0.00 0.00 82 1015.7
20260906050044 23 0 0.0 1.6 0.00 0.00 0.00 81 1015.7
20260906044543 24 0 0.0 0.0 0.00 0.00 0.00 79 1015.8
20260906043045 24 0 0.0 1.6 0.00 0.00 0.00 79 1015.9
20260906041552 24 82 0.0 3.2 0.00 0.00 0.00 78 1015.9
20260906040045 25 0 0.0 1.6 0.00 0.00 0.00 77 1015.9
20260906034549 25 0 0.0 0.0 0.00 0.00 0.00 76 1015.8
20260906033046 25 0 0.0 0.0 0.00 0.00 0.00 76 1015.7
20260906031543 26 0 0.0 0.0 0.00 0.00 0.00 73 1015.7
20260906030049 26 0 0.0 0.0 0.00 0.00 0.00 72 1015.5
20260906024600 26 0 0.0 0.0 0.00 0.00 0.00 71 1015.2
20260906023043 26 0 0.0 0.0 0.00 0.00 0.00 70 1015.2
20260906021546 26 0 0.0 0.0 0.00 0.00 0.00 70 1014.7
20260906020049 27 0 0.0 0.0 0.00 0.00 0.00 66 1014.5
20260906014552 28 0 0.0 0.0 0.00 0.00 0.00 65 1014.3
20260906013049 28 0 0.0 1.6 0.00 0.00 0.00 64 1014.4
20260906011547 30 0 0.0 0.0 0.00 0.00 0.00 59 1014.3
20260906010047 30 0 0.0 3.2 0.00 0.00 0.00 57 1014.2
20260906004545 31 0 0.0 3.2 0.00 0.00 0.00 55 1014.0
20260906003051 31 0 1.6 14.5 0.00 0.00 0.00 52 1014.0
20260906001549 32 147 4.8 16.1 0.00 0.00 0.00 49 1014.0
20260906000046 35 88 9.7 24.1 0.00 0.00 0.00 43 1013.9
20260905234544 36 39 3.2 9.7 0.00 0.00 0.00 39 1013.5
20260905233049 37 41 8.0 17.7 0.00 0.00 0.00 37 1013.4
20260905231546 37 37 4.8 8.0 0.00 0.00 0.00 37 1013.4
20260905230047 37 27 4.8 14.5 0.00 0.00 0.00 36 1013.3
20260905224542 38 22 8.0 16.1 0.00 0.00 0.00 36 1013.3
20260905223046 38 25 0.0 6.4 0.00 0.00 0.00 36 1013.2
20260905221546 38 236 1.6 4.8 0.00 0.00 0.00 34 1013.2
20260905220045 37 0 0.0 3.2 0.00 0.00 0.00 38 1013.4
20260905214547 37 360 3.2 9.7 0.00 0.00 0.00 38 1013.6
20260905213047 37 36 3.2 14.5 0.00 0.00 0.00 37 1013.7
20260905211545 38 63 4.8 14.5 0.00 0.00 0.00 34 1013.8
20260905210043 39 58 8.0 16.1 0.00 0.00 0.00 33 1014.0
20260905204557 38 10 6.4 14.5 0.00 0.00 0.00 34 1014.3
20260905203054 38 34 6.4 16.1 0.00 0.00 0.00 36 1014.4
20260905201545 40 32 6.4 16.1 0.00 0.00 0.00 33 1014.4
20260905200055 39 193 4.8 9.7 0.00 0.00 0.00 33 1014.3
20260905194549 38 66 6.4 17.7 0.00 0.00 0.00 34 1014.6
20260905193053 39 20 8.0 20.9 0.00 0.00 0.00 34 1014.9
20260905191544 39 24 3.2 8.0 0.00 0.00 0.00 35 1015.1
20260905190057 38 22 3.2 9.7 0.00 0.00 0.00 36 1015.3
20260905184550 38 310 4.8 17.7 0.00 0.00 0.00 37 1015.5
20260905183046 38 32 12.9 22.5 0.00 0.00 0.00 37 1015.9
20260905181546 37 308 4.8 16.1 0.00 0.00 0.00 38 1016.2
20260905180051 37 192 0.0 4.8 0.00 0.00 0.00 39 1016.4
20260905174546 37 21 4.8 14.5 0.00 0.00 0.00 40 1016.6
20260905173045 37 49 11.3 19.3 0.00 0.00 0.00 40 1016.8
20260905171544 38 44 4.8 16.1 0.00 0.00 0.00 39 1016.7
20260905170050 38 0 0.0 8.0 0.00 0.00 0.00 40 1017.1